Regional Weather Roundup
Issued by NWS

Home | Current Version | Previous Version | Graphics & Text | Print | Product List | Glossary On
Versions: 1 2 3 4 5 6 7 8 9 10 11 12 13 14 15 16 17 18 19 20 21 22 23 24 25 26 27 28 29 30 31 32 33 34 35 36 37 38 39 40 41 42 43 44 45 46 47 48 49 50
000
ASUS45 KABQ 242001
RWRNM
WEATHER ROUNDUP FOR NEW MEXICO
NATIONAL WEATHER SERVICE ALBUQUERQUE NM
200 PM MDT FRI APR 24 2015

NOTE: "FAIR" MEANS FEW OR NO CLOUDS BELOW 12,000 FEET AGL WITH NO
       SIGNIFICANT WEATHER OR OBSTRUCTIONS TO VISION.

      THIS PRODUCT IS RELEASED AS TWO VERSIONS.  ONE VERSION NEAR
      THE TOP OF THE HOUR CONTAINING PRELIMINARY DATA FROM ALBUQUERQUE
      AND OTHER STATIONS.  A FINAL VERSION WITH ADDITIONAL DATA IS
      ISSUED ABOUT 10 MINUTES AFTER THE HOUR.

NMZ501-503-504-510>518-242100-
NORTHWEST PLATEAU/NORTHCENTRAL MOUNTAINS

CITY           SKY/WX    TMP DP  RH WIND       PRES   REMARKS
FARMINGTON     MOSUNNY   64  21  19 W17G29    29.81F
LOS ALAMOS     PTSUNNY   51  19  28 N3G17     29.86F
SANTA FE       CLOUDY    57  31  37 W17G30    29.84F
TAOS           CLOUDY    55  21  26 W21G29    29.80F
ANGEL FIRE     LGT RAIN  40  30  67 N10G29    29.85S WCI  33

$$
NMZ402-403-502-505>509-242100-
WESTCENTRAL MOUNTAINS/SOUTHWEST MOUNTAINS

CITY           SKY/WX    TMP DP  RH WIND       PRES   REMARKS
GALLUP         LGT RAIN  42  35  76 SW15G32   29.97R
GRANTS         PTSUNNY   61  22  23 SW13G29   29.92F
SILVER CITY      N/A     61  25  25 W20G33    30.00S

$$
NMZ407-409-411-412-242100-
SOUTHERN DESERTS

CITY           SKY/WX    TMP DP  RH WIND       PRES   REMARKS
LORDSBURG      FAIR      68  28  22 W22G31    29.97F
DEMING         SUNNY     68  27  21 W21G35    29.95S
LAS CRUCES     SUNNY     68  30  24 W29G35    29.94F
HOLLOMAN AFB   MOSUNNY   70  32  24 W16G23    29.87F
ALAMOGORDO     MOSUNNY   68  30  24 W16G22    29.89F
T OR C         PTSUNNY   65  26  23 SW9       29.88F

$$
NMZ519>523-242100-
CENTRAL VALLEYS/CENTRAL HIGHLANDS

CITY           SKY/WX    TMP DP  RH WIND       PRES   REMARKS
ALBUQUERQUE    TSTM      48  37  65 N9        29.91F
DOUBLE EAGLE   PTSUNNY   46  36  66 NW10      29.91F
MORIARTY ARPT  FAIR      49  39  70 SW14      29.92F
CLINES CORNERS CLOUDY    44  34  67 W23G35    29.87S
BELEN          RAIN      54  40  59 CALM      29.90F
SOCORRO        PTSUNNY   61  37  41 SE8       29.87F

$$
NMZ524>526-539-540-242100-
SOUTHCENTRAL MOUNTAINS

CITY           SKY/WX    TMP DP  RH WIND       PRES   REMARKS
RUIDOSO        NOT AVBL

$$
NMZ527>531-242100-
NORTHEAST HIGHLANDS/NORTHEAST PLAINS

CITY           SKY/WX    TMP DP  RH WIND       PRES   REMARKS
LAS VEGAS      PTSUNNY   59  24  26 W23G31    29.78F
RATON          CLOUDY    58  23  26 NE10      29.69F
CLAYTON        LGT RAIN  60  38  43 W14G32    29.62F

$$
NMZ532>537-242100-
EASTCENTRAL PLAINS

CITY           SKY/WX    TMP DP  RH WIND       PRES   REMARKS
TUCUMCARI      MOSUNNY   67  34  29 W25G33    29.69F
CANNON AFB     NOT AVBL
CLOVIS AIRPORT SUNNY     70  36  28 W37G44    29.74S

$$
NMZ028-029-538-242100-
SOUTHEAST PLAINS

CITY           SKY/WX    TMP DP  RH WIND       PRES   REMARKS
ROSWELL        SUNNY     76  25  15 W26G38    29.79R
ARTESIA        SUNNY     75  30  19 SW24G35   29.81F
CARLSBAD       SUNNY     78  22  12 W26G37    29.82F
HOBBS          MOSUNNY   73  32  21 SW29G40   29.83S


$$



USA.gov is the U.S. government's official web portal to all federal, state and local government web resources and services.